Weather History for Crestview, FL

Change the Weather History Date:

Tuesday, January 15, 2013

  Actual Average Record
Temperature  
Mean Temperature 70 °F -  
Max Temperature 73 °F - - ()
Min Temperature 67 °F - - ()
Cooling Degree Days 6    
Growing Degree Days 20 (Base 50)    
Moisture  
Dew Point 68 °F    
Average Humidity 92    
Maximum Humidity 100    
Minimum Humidity 78    
Precipitation  
Precipitation 0.18 in - - ()
Sea Level Pressure  
Sea Level Pressure 30.02 in    
Wind  
Wind Speed 12 mph (South)    
Max Wind Speed 21 mph    
Max Gust Speed 32 mph    
Visibility 7 miles    
Events Rain    
T = Trace of Precipitation, MM = Missing Value Source: NWS Daily Summary

Daily Weather History Graph

Daily Weather History Graph

Search for Another Location

Airport:

Trip Planner

Search our weather history database for the weather conditions in past years. The results will help you decide how hot, cold, wet, or windy it might be!

Date:

Astronomy

Jan. 15, 2013 Rise Set
Actual Time 6:44 AM CST 5:07 PM CST
Civil Twilight 6:18 AM CST 5:33 PM CST
Nautical Twilight 5:48 AM CST 6:03 PM CST
Astronomical Twilight 5:19 AM CST 6:32 PM CST
Moon 9:10 AM CST (1/15) 9:33 PM CST (1/15)
Length of Visible Light 11h 15m
Length of Day
10h 23m
Waxing Crescent, 19% of the Moon is Illuminated
Jan 15
Waxing Crescent
Jan 18
First Quarter
Jan 26
Full
Feb 3
Last Quarter
Feb 10
New

Hourly Weather History & Observations

Time (CST) Temp. Dew Point Humidity Pressure Visibility Wind Dir Wind Speed Gust Speed Precip Events Conditions
12:55 AM 68.7 °F 67.8 °F 97% 30.07 in 10.0 mi South 10.4 mph - N/A   Overcast
1:12 AM 68.0 °F 68.0 °F 100% 30.07 in 10.0 mi SSE 9.2 mph - N/A   Overcast
1:20 AM 69.8 °F 68.0 °F 94% 30.07 in 10.0 mi SSE 11.5 mph - N/A   Overcast
1:55 AM 69.1 °F 67.6 °F 95% 30.06 in 10.0 mi SSE 10.4 mph - N/A   Overcast
2:55 AM 69.3 °F 67.5 °F 94% 30.04 in 10.0 mi SSE 12.7 mph - N/A   Overcast
2:56 AM 69.8 °F 68.0 °F 94% 30.04 in 10.0 mi SSE 9.2 mph - N/A   Overcast
3:02 AM 69.8 °F 68.0 °F 94% 30.04 in 10.0 mi SSE 10.4 mph - N/A   Overcast
3:09 AM 69.8 °F 68.0 °F 94% 30.04 in 10.0 mi South 10.4 mph - N/A   Overcast
3:22 AM 69.8 °F 68.0 °F 94% 30.04 in 10.0 mi SSE 13.8 mph - N/A   Overcast
3:55 AM 69.4 °F 67.5 °F 93% 30.04 in 10.0 mi SSE 11.5 mph - N/A   Overcast
4:25 AM 69.8 °F 68.0 °F 94% 30.04 in 10.0 mi South 10.4 mph - N/A   Light Drizzle
4:31 AM 69.8 °F 68.0 °F 94% 30.04 in 10.0 mi South 15.0 mph - N/A   Overcast
4:55 AM 69.6 °F 67.8 °F 94% 30.04 in 10.0 mi South 11.5 mph - 0.00 in   Overcast
5:55 AM 69.6 °F 67.8 °F 94% 30.04 in 10.0 mi SSE 11.5 mph - N/A   Overcast
6:14 AM 69.8 °F 68.0 °F 94% 30.04 in 10.0 mi SSE 9.2 mph - N/A   Overcast
6:35 AM 69.8 °F 68.0 °F 94% 30.05 in 10.0 mi South 11.5 mph 18.4 mph N/A   Overcast
6:38 AM 69.8 °F 68.0 °F 94% 30.05 in 10.0 mi South 11.5 mph - N/A   Overcast
6:55 AM 69.6 °F 67.8 °F 94% 30.06 in 10.0 mi South 11.5 mph - N/A   Overcast
7:08 AM 69.8 °F 68.0 °F 94% 30.06 in 10.0 mi South 12.7 mph - N/A   Overcast
7:55 AM 70.0 °F 68.2 °F 94% 30.08 in 5.0 mi SSE 9.2 mph - N/A   Overcast
8:55 AM 71.6 °F 67.6 °F 87% 30.07 in 6.0 mi South 13.8 mph - N/A   Overcast
9:27 AM 71.6 °F 68.0 °F 88% 30.06 in 6.0 mi South 15.0 mph - N/A Rain Light Rain
9:40 AM 71.6 °F 68.0 °F 88% 30.06 in 6.0 mi SSE 13.8 mph - N/A   Overcast
9:55 AM 72.0 °F 68.0 °F 87% 30.06 in 7.0 mi South 15.0 mph - 0.00 in   Overcast
10:55 AM 72.9 °F 68.5 °F 86% 30.06 in 7.0 mi South 10.4 mph - N/A   Overcast
11:55 AM 73.9 °F 67.5 °F 80% 30.02 in 7.0 mi South 15.0 mph - N/A   Overcast
12:13 PM 73.4 °F 66.2 °F 78% 30.00 in 3.0 mi South 16.1 mph - N/A Rain Light Rain
12:26 PM 71.6 °F 68.0 °F 88% 30.00 in 7.0 mi South 13.8 mph - N/A   Overcast
12:51 PM 71.6 °F 68.0 °F 88% 29.99 in 5.0 mi South 17.3 mph - N/A Rain Light Rain
12:55 PM 71.6 °F 67.8 °F 88% 30.00 in 7.0 mi South 13.8 mph - 0.01 in   Overcast
1:10 PM 71.6 °F 68.0 °F 88% 29.99 in 5.0 mi South 13.8 mph - N/A Rain Light Rain
1:19 PM 71.6 °F 68.0 °F 88% 29.98 in 1.5 mi South 15.0 mph - N/A Rain Rain
1:26 PM 71.6 °F 68.0 °F 88% 29.98 in 3.0 mi South 11.5 mph - N/A Rain Light Rain
1:32 PM 71.6 °F 68.0 °F 88% 29.99 in 1.5 mi South 15.0 mph - N/A Rain Light Rain
1:48 PM 71.6 °F 69.8 °F 94% 29.98 in 5.0 mi South 12.7 mph - N/A   Overcast
1:55 PM 70.7 °F 69.3 °F 95% 29.99 in 5.0 mi South 13.8 mph - 0.06 in   Overcast
2:32 PM 71.6 °F 69.8 °F 94% 29.98 in 6.0 mi South 11.5 mph - N/A   Mostly Cloudy
2:55 PM 70.7 °F 68.7 °F 93% 30.00 in 6.0 mi South 12.7 mph - N/A   Overcast
3:18 PM 71.6 °F 68.0 °F 88% 29.99 in 6.0 mi South 13.8 mph - N/A Rain Light Rain
3:32 PM 71.6 °F 68.0 °F 88% 29.99 in 6.0 mi South 16.1 mph - N/A   Overcast
3:47 PM 71.6 °F 69.8 °F 94% 30.00 in 6.0 mi South 10.4 mph - N/A   Overcast
3:56 PM 70.7 °F 69.8 °F 97% 30.01 in 6.0 mi South 12.7 mph - 0.00 in   Overcast
4:19 PM 71.6 °F 69.8 °F 94% 30.00 in 6.0 mi South 12.7 mph - N/A   Overcast
4:55 PM 71.6 °F 69.8 °F 94% 30.01 in 6.0 mi South 9.2 mph - 0.00 in   Light Drizzle
5:11 PM 69.8 °F 68.0 °F 94% 30.00 in 6.0 mi South 9.2 mph - N/A   Mostly Cloudy
5:55 PM 70.0 °F 68.5 °F 95% 30.01 in 6.0 mi South 9.2 mph - N/A   Mostly Cloudy
6:16 PM 69.8 °F 68.0 °F 94% 30.00 in 10.0 mi SSE 12.7 mph - N/A   Overcast
6:48 PM 69.8 °F 68.0 °F 94% 29.99 in 2.5 mi South 13.8 mph - N/A Rain Rain
6:55 PM 70.0 °F 68.4 °F 95% 30.01 in 3.0 mi South 12.7 mph - 0.01 in   Light Drizzle
7:09 PM 69.8 °F 68.0 °F 94% 29.99 in 5.0 mi South 11.5 mph - N/A   Overcast
7:59 PM 70.0 °F 68.4 °F 95% 30.00 in 6.0 mi South 12.7 mph - 0.01 in   Mostly Cloudy
8:21 PM 69.8 °F 68.0 °F 94% 29.98 in 6.0 mi South 12.7 mph - N/A   Mostly Cloudy
8:55 PM 70.0 °F 68.4 °F 95% 30.00 in 6.0 mi South 13.8 mph 21.9 mph N/A   Mostly Cloudy
9:41 PM 69.8 °F 68.0 °F 94% 29.98 in 6.0 mi SSE 15.0 mph 21.9 mph N/A Rain Light Rain
9:55 PM 69.6 °F 68.4 °F 96% 30.00 in 3.0 mi South 16.1 mph 21.9 mph 0.00 in Rain Rain
10:25 PM 69.8 °F 68.0 °F 94% 29.98 in 1.5 mi South 16.1 mph 21.9 mph N/A Rain Rain
10:31 PM 69.8 °F 66.2 °F 88% 29.98 in 1.5 mi SSW 20.7 mph 32.2 mph N/A Rain Heavy Rain
10:55 PM 68.0 °F 66.2 °F 94% 30.00 in 2.0 mi SSW 13.8 mph 21.9 mph 0.09 in Rain Light Rain
11:14 PM 68.0 °F 66.2 °F 94% 29.96 in 4.0 mi South 16.1 mph 24.2 mph N/A Rain Light Rain
11:40 PM 68.0 °F 66.2 °F 94% 29.95 in 6.0 mi South 12.7 mph - N/A   Mostly Cloudy
11:55 PM 67.1 °F 66.2 °F 97% 29.98 in 6.0 mi South 10.4 mph - 0.00 in   Mostly Cloudy